Weather History for Dumas, TX

Change the Weather History Date:

Saturday, February 9, 2013

  Actual Average (KBGD) Record (KBGD)
Temperature  
Mean Temperature 48 °F 41 °F  
Max Temperature 64 °F 54 °F 81 °F (1976)
Min Temperature 32 °F 28 °F 1 °F (2011)
Degree Days  
Heating Degree Days 17 24  
Month to date heating degree days 219  
Since 1 July heating degree days 2571  
Cooling Degree Days 0 0  
Month to date cooling degree days 0  
Year to date cooling degree days 0  
Moisture  
Dew Point 18 °F    
Average Humidity 37    
Maximum Humidity 55    
Minimum Humidity 10    
Precipitation  
Precipitation 0.00 in 0.03 in 0.29 in (1986)
Month to date precipitation 0.23  
Year to date precipitation 0.82  
Snow  
Snow 0.00 in - 5.10 in (1986)
Month to date snowfall  
Since 1 July snowfall  
Snow Depth -    
Sea Level Pressure  
Sea Level Pressure 29.71 in    
Wind  
Wind Speed 17 mph (South)    
Max Wind Speed 38 mph    
Max Gust Speed 50 mph    
Visibility 9 miles    
Events      
T = Trace of Precipitation, MM = Missing Value Source: NWS Daily Summary

Daily Weather History Graph

Daily Weather History Graph

Search for Another Location

Airport:

Trip Planner

Search our weather history database for the weather conditions in past years. The results will help you decide how hot, cold, wet, or windy it might be!

Date:

Astronomy

Feb. 09, 2013 Rise Set
Actual Time 7:41 AM CST 6:23 PM CST
Civil Twilight 7:14 AM CST 6:50 PM CST
Nautical Twilight 6:44 AM CST 7:20 PM CST
Astronomical Twilight 6:14 AM CST 7:50 PM CST
Moon 6:54 AM CST (2/9) 6:07 PM CST (2/9)
Length of Visible Light 11h 35m
Length of Day
10h 42m
Waning Crescent, 0% of the Moon is Illuminated
Feb 9
Waning Crescent
Feb 10
New
Feb 17
First Quarter
Feb 25
Full
Mar 4
Last Quarter

Hourly Weather History & Observations

Time (CST) Temp. Windchill Dew Point Humidity Pressure Visibility Wind Dir Wind Speed Gust Speed Precip Events Conditions
12:15 AM 35.6 °F 27.1 °F 14.0 °F 41% 29.96 in 10.0 mi SE 12.7 mph - N/A   Clear
12:55 AM 37.4 °F 29.3 °F 14.0 °F 38% 29.95 in 10.0 mi SSE 12.7 mph - N/A   Clear
1:15 AM 37.4 °F 28.5 °F 14.0 °F 38% 29.94 in 10.0 mi SSE 15.0 mph - N/A   Clear
1:35 AM 37.4 °F 28.2 °F 14.0 °F 38% 29.93 in 10.0 mi SSE 16.1 mph - N/A   Clear
1:55 AM 37.4 °F 28.2 °F 14.0 °F 38% 29.93 in 10.0 mi SSE 16.1 mph - N/A   Clear
2:15 AM 37.4 °F 28.2 °F 14.0 °F 38% 29.93 in 10.0 mi SSE 16.1 mph - N/A   Clear
2:35 AM 35.6 °F 27.1 °F 12.2 °F 38% 29.92 in 10.0 mi SSE 12.7 mph - N/A   Clear
2:55 AM 33.8 °F 25.8 °F 14.0 °F 44% 29.91 in 10.0 mi SSE 10.4 mph - N/A   Clear
3:15 AM 33.8 °F 25.3 °F 14.0 °F 44% 29.90 in 10.0 mi SE 11.5 mph - N/A   Clear
3:35 AM 33.8 °F 25.3 °F 14.0 °F 44% 29.89 in 10.0 mi SE 11.5 mph - N/A   Clear
3:55 AM 33.8 °F 28.6 °F 14.0 °F 44% 29.88 in 10.0 mi SE 5.8 mph - N/A   Clear
4:15 AM 32.0 °F - 14.0 °F 48% 29.88 in 10.0 mi Calm Calm - N/A   Scattered Clouds
4:35 AM 37.4 °F 29.3 °F 15.8 °F 41% 29.86 in 10.0 mi SSE 12.7 mph - N/A   Scattered Clouds
4:55 AM 37.4 °F 27.5 °F 15.8 °F 41% 29.85 in 10.0 mi SSE 18.4 mph - N/A   Mostly Cloudy
5:15 AM 37.4 °F 28.9 °F 15.8 °F 41% 29.85 in 10.0 mi South 13.8 mph - N/A   Scattered Clouds
5:35 AM 35.6 °F 26.2 °F 15.8 °F 44% 29.84 in 10.0 mi SSE 15.0 mph - N/A   Clear
5:55 AM 35.6 °F 27.1 °F 15.8 °F 44% 29.83 in 10.0 mi SSE 12.7 mph - N/A   Clear
6:15 AM 35.6 °F 29.2 °F 15.8 °F 44% 29.84 in 10.0 mi SSE 8.1 mph - N/A   Clear
6:35 AM 35.6 °F 28.6 °F 15.8 °F 44% 29.83 in 10.0 mi SSE 9.2 mph - N/A   Clear
6:55 AM 33.8 °F 28.6 °F 15.8 °F 48% 29.83 in 10.0 mi South 5.8 mph - N/A   Clear
7:15 AM 33.8 °F 25.8 °F 15.8 °F 48% 29.82 in 10.0 mi SSE 10.4 mph - N/A   Clear
7:35 AM 32.0 °F 24.8 °F 15.8 °F 51% 29.81 in 10.0 mi SE 8.1 mph - N/A   Clear
7:55 AM 33.8 °F 28.6 °F 17.6 °F 52% 29.82 in 10.0 mi SSE 5.8 mph - N/A   Clear
8:15 AM 32.0 °F 27.5 °F 17.6 °F 55% 29.82 in 10.0 mi South 4.6 mph - N/A   Clear
8:35 AM 32.0 °F 23.6 °F 17.6 °F 55% 29.81 in 10.0 mi SSE 10.4 mph - N/A   Clear
8:55 AM 33.8 °F 28.6 °F 17.6 °F 52% 29.80 in 10.0 mi SSE 5.8 mph - N/A   Clear
9:15 AM 33.8 °F 29.6 °F 17.6 °F 52% 29.80 in 10.0 mi SSE 4.6 mph - N/A   Clear
9:35 AM 37.4 °F 31.4 °F 19.4 °F 48% 29.80 in 10.0 mi SSE 8.1 mph - N/A   Clear
9:55 AM 41.0 °F 34.7 °F 21.2 °F 45% 29.79 in 10.0 mi South 10.4 mph - N/A   Clear
10:15 AM 44.6 °F 36.1 °F 26.6 °F 49% 29.78 in 10.0 mi South 21.9 mph 27.6 mph N/A   Clear
10:35 AM 46.4 °F 39.8 °F 28.4 °F 50% 29.77 in 10.0 mi South 16.1 mph 20.7 mph N/A   Clear
10:55 AM 48.2 °F - 30.2 °F 50% 29.74 in 10.0 mi South 20.7 mph 26.5 mph N/A   Clear
11:15 AM 50.0 °F - 30.2 °F 47% 29.74 in 10.0 mi South 24.2 mph 27.6 mph N/A   Clear
11:35 AM 51.8 °F - 32.0 °F 47% 29.73 in 10.0 mi South 24.2 mph 28.8 mph N/A   Clear
11:55 AM 51.8 °F - 32.0 °F 47% 29.72 in 10.0 mi South 23.0 mph 28.8 mph N/A   Clear
12:15 PM 53.6 °F - 32.0 °F 44% 29.71 in 10.0 mi South 24.2 mph 32.2 mph N/A   Clear
12:35 PM 55.4 °F - 32.0 °F 41% 29.68 in 10.0 mi South 26.5 mph - N/A   Clear
12:55 PM 55.4 °F - 33.8 °F 44% 29.66 in 10.0 mi South 24.2 mph 31.1 mph N/A   Clear
1:35 PM 59.0 °F - 33.8 °F 39% 29.62 in 10.0 mi South 28.8 mph 36.8 mph N/A   Clear
1:55 PM 60.8 °F - 33.8 °F 36% 29.58 in 10.0 mi South 23.0 mph 35.7 mph N/A   Clear
2:15 PM 60.8 °F - 33.8 °F 36% 29.57 in 10.0 mi South 27.6 mph 39.1 mph N/A   Scattered Clouds
2:35 PM 62.6 °F - 32.0 °F 32% 29.54 in 10.0 mi South 32.2 mph 41.4 mph N/A   Scattered Clouds
3:15 PM 62.6 °F - 33.8 °F 34% 29.50 in 10.0 mi SSE 32.2 mph 39.1 mph N/A   Scattered Clouds
3:35 PM 62.6 °F - 33.8 °F 34% 29.49 in 10.0 mi SSE 28.8 mph 39.1 mph N/A   Scattered Clouds
3:55 PM 62.6 °F - 33.8 °F 34% 29.48 in 10.0 mi SSE 26.5 mph 39.1 mph N/A   Scattered Clouds
4:15 PM 60.8 °F - 35.6 °F 39% 29.48 in 10.0 mi SSE 25.3 mph 38.0 mph N/A   Clear
4:35 PM 64.4 °F - 14.0 °F 14% 29.48 in 3.0 mi SSW 35.7 mph 47.2 mph N/A   Haze
4:55 PM 64.4 °F - 14.0 °F 14% 29.47 in 2.5 mi SSW 36.8 mph 49.5 mph N/A   Haze
5:15 PM 64.4 °F - 6.8 °F 10% 29.47 in 2.0 mi SSW 34.5 mph 46.0 mph N/A   Haze
5:35 PM 60.8 °F - 6.8 °F 12% 29.49 in 4.0 mi WSW 33.4 mph 41.4 mph N/A   Haze
5:55 PM 59.0 °F - 8.6 °F 14% 29.51 in 3.0 mi WSW 34.5 mph 46.0 mph N/A   Haze
6:15 PM 57.2 °F - 12.2 °F 17% 29.52 in 3.0 mi WSW 26.5 mph 35.7 mph N/A   Haze
6:35 PM 55.4 °F - 14.0 °F 20% 29.54 in 5.0 mi WSW 38.0 mph 43.7 mph N/A   Haze
6:55 PM 53.6 °F - 15.8 °F 22% 29.55 in 7.0 mi WSW 32.2 mph 40.3 mph N/A   Overcast
7:15 PM 51.8 °F - 17.6 °F 26% 29.56 in 10.0 mi WSW 31.1 mph 42.6 mph N/A   Overcast
7:35 PM 50.0 °F - 19.4 °F 30% 29.58 in 10.0 mi WSW 33.4 mph 44.9 mph N/A   Overcast
7:55 PM 46.4 °F 36.9 °F 17.6 °F 32% 29.59 in 10.0 mi WSW 32.2 mph 41.4 mph N/A   Mostly Cloudy
8:15 PM 46.4 °F 37.4 °F 17.6 °F 32% 29.59 in 10.0 mi WSW 28.8 mph 39.1 mph N/A   Scattered Clouds
8:35 PM 44.6 °F 35.5 °F 15.8 °F 31% 29.58 in 10.0 mi WSW 25.3 mph 32.2 mph N/A   Clear
8:55 PM 42.8 °F 31.9 °F 12.2 °F 29% 29.60 in 10.0 mi WSW 32.2 mph 40.3 mph N/A   Clear
9:15 PM 42.8 °F 32.1 °F 12.2 °F 29% 29.60 in 10.0 mi WSW 31.1 mph 39.1 mph N/A   Clear
9:35 PM 41.0 °F 30.0 °F 10.4 °F 29% 29.60 in 10.0 mi WSW 28.8 mph 34.5 mph N/A   Clear
9:55 PM 41.0 °F 30.2 °F 6.8 °F 24% 29.60 in 10.0 mi WSW 27.6 mph 33.4 mph N/A   Clear
10:15 PM 39.2 °F 28.3 °F 6.8 °F 26% 29.60 in 10.0 mi WSW 25.3 mph 33.4 mph N/A   Clear
10:35 PM 37.4 °F 27.2 °F 6.8 °F 28% 29.61 in 10.0 mi SW 19.6 mph - N/A   Clear
10:55 PM 37.4 °F 27.2 °F 6.8 °F 28% 29.61 in 10.0 mi WSW 19.6 mph - N/A   Clear
11:15 PM 37.4 °F 26.9 °F 5.0 °F 26% 29.61 in 10.0 mi SW 20.7 mph 25.3 mph N/A   Clear
11:35 PM 37.4 °F 25.9 °F 6.8 °F 28% 29.60 in 10.0 mi WSW 25.3 mph 29.9 mph N/A   Clear
11:55 PM 37.4 °F 25.9 °F 6.8 °F 28% 29.60 in 10.0 mi WSW 25.3 mph 32.2 mph N/A   Clear